User: anonymous   Login
Location: Unspecified
(0.0000°N, 0.0000°E)
Time: 21:21:28
(UTC+00:00)
Language:

Diademe D-1D - Orbit

View from above orbital plane
View from above orbital plane
View from above satellite
View from above satellite

Ground track
Ground track

The orbit data is extracted from the following two-line orbital elements,

1 02680U 67014A   23082.94072009  .00002160  00000-0  89524-3 0  9990
2 02680  39.4398 306.4574 0713279 156.0344 207.5362 13.39259188717431
Epoch (UTC): 23 March 2023 22:34:38
Eccentricity: 0.0713279
inclination: 39.4398°
perigee height: 578 km
apogee height: 1646 km
right ascension of ascending node: 306.4574°
argument of perigee: 156.0344°
revolutions per day: 13.39259188
mean anomaly at epoch: 207.5362°
orbit number at epoch: 71743

The dashed part of the orbit path shows where the satellite is in the earth's shadow,  

DLR